Location: Honolulu
(21.3069°N, 157.8583°W)
Time: 22:05:51
(UTC-10:00)

Injun/Solrad 3 - All Passes

Search period start: 07 June 2026 00:00
Search period end: 17 June 2026 00:00
Orbit: 867 x 989 km, 66.8° (Epoch: 8 June)

Date Brightness Start Highest point End Pass type
(mag) Time Alt. Az. Time Alt. Az. Time Alt. Az.
7 Jun - 09:23:29 10° S 09:29:11 49° ESE 09:35:06 10° NE daylight
7 Jun - 11:12:00 10° W 11:15:50 17° WNW 11:19:46 10° NNW daylight
7 Jun - 20:23:41 10° NNW 20:30:09 84° ENE 20:36:28 10° SSE visible
8 Jun - 09:34:09 10° SSW 09:40:07 85° ESE 09:46:18 10° NNE daylight
8 Jun - 18:50:34 10° NNE 18:54:20 16° ENE 18:58:05 10° E daylight
8 Jun - 20:34:48 10° NNW 20:41:06 59° WSW 20:47:17 10° S visible
9 Jun - 08:02:37 10° SE 08:05:16 13° ESE 08:07:58 10° ENE daylight
9 Jun - 09:45:15 10° SW 09:51:07 57° WNW 09:57:12 10° NNE daylight
9 Jun - 19:00:19 10° N 19:05:36 26° ENE 19:10:48 10° ESE daylight
9 Jun - 20:46:17 10° NW 20:52:00 35° WSW 20:57:37 10° S visible
10 Jun - 08:11:24 10° SSE 08:16:03 24° ESE 08:20:48 10° NE daylight
10 Jun - 09:56:50 10° SW 10:02:12 34° WNW 10:07:46 10° N daylight
10 Jun - 19:10:40 10° N 19:16:45 43° ENE 19:22:42 10° SE daylight
10 Jun - 20:58:18 10° WNW 21:02:49 20° WSW 21:07:17 10° SSW visible
11 Jun - 08:21:19 10° S 08:26:53 41° ESE 08:32:37 10° NE daylight
11 Jun - 10:09:02 10° WSW 10:13:24 21° WNW 10:17:53 10° NNW daylight
11 Jun - 19:21:23 10° NNW 19:27:49 71° ENE 19:34:06 10° SSE daylight
11 Jun - 21:11:59 10° W 21:13:36 11° WSW 21:15:11 10° WSW visible
12 Jun - 08:31:51 10° SSW 08:37:46 72° ESE 08:43:56 10° NNE daylight
12 Jun - 10:22:30 10° WNW 10:24:43 12° WNW 10:26:57 10° NW daylight
12 Jun - 17:48:56 10° NNE 17:51:53 13° ENE 17:54:49 10° E daylight
12 Jun - 19:32:24 10° NNW 19:38:47 70° WSW 19:45:02 10° SSE visible
13 Jun - 07:01:58 10° ESE 07:03:00 10° ESE 07:04:03 10° E daylight
13 Jun - 08:42:48 10° SSW 08:48:45 68° WNW 08:54:56 10° NNE daylight
13 Jun - 17:58:18 10° N 18:03:11 22° ENE 18:07:59 10° ESE daylight
13 Jun - 19:43:44 10° NW 19:49:42 41° WSW 19:55:32 10° S visible
14 Jun - 07:09:34 10° SSE 07:13:46 20° ESE 07:18:03 10° ENE daylight
14 Jun - 08:54:13 10° SW 08:59:49 40° WNW 09:05:37 10° N daylight
14 Jun - 18:08:30 10° N 18:14:22 36° ENE 18:20:07 10° SE daylight
14 Jun - 19:55:32 10° NW 20:00:32 24° WSW 20:05:28 10° SSW visible
15 Jun - 07:19:14 10° S 07:24:35 35° ESE 07:30:05 10° NE daylight
15 Jun - 09:06:10 10° WSW 09:10:58 24° WNW 09:15:55 10° N daylight
15 Jun - 18:19:07 10° NNW 18:25:28 60° ENE 18:31:39 10° SE daylight
15 Jun - 20:08:20 10° WNW 20:11:20 14° WSW 20:14:18 10° SW visible
16 Jun - 07:29:35 10° S 07:35:27 60° ESE 07:41:32 10° NNE daylight
16 Jun - 09:19:03 10° W 09:22:14 14° WNW 09:25:30 10° NNW daylight
16 Jun - 16:47:47 10° NE 16:49:25 11° NE 16:51:03 10° ENE daylight
16 Jun - 18:30:02 10° NNW 18:36:28 83° WSW 18:42:44 10° SSE daylight
